Погода в Белоозерском

Россия / Московская область     55°27′34″N   38°26′20″E
темп.,
°C
ветер,
м/с
пор.,
м/с
влажн.,
%
обл.,
%
осадки,
мм/ч
давл.,
гПа
погр.,
м
28 октября, чт
чт2800:00+6зюз51280100 0.0 1014555
03:00+4юз41292100 0.0 1013402
06:00+5юз51190100 0.1 1011453
09:00+6юз61291100 0.8 1010676
12:00+7зюз51292100 0.5 1010612
15:00+10зсз5108183 0.7 1010896
18:00+8сз51188100 0.2 1014824
21:00+6с5884100 0.3 1019901
29 октября, пт
пт2900:00+6с2681100 0.0 1022286
03:00+6с1180100 0.0 102415
06:00+6юз1178100 0.0 102518
09:00+5ююз3678100 0.0 1026304
12:00+6юз5977100 0.1 1026531
15:00+7юз51275100 0.1 1024571
18:00+7зюз51085100 0.0 1025621
21:00+7зюз412936 0.0 1024348
30 октября, сб
сб3000:00+7зюз4129615 0.0 1025292
03:00+7зюз4129568 0.0 1025303
06:00+7зюз4139589 0.0 1026320
09:00+8зюз51393100 0.0 1026406
12:00+12зюз612785 0.0 1026533
15:00+13зюз512745 0.0 1026593
18:00+9зюз412855 0.0 1027322
21:00+8зюз412855 0.0 1028301
31 октября, вс
вс3100:00+6зюз412858 0.0 1028285
03:00+5юз3118562 0.0 1028259
06:00+5юз411875 0.0 1028234
09:00+6юз412807 0.0 1028305
12:00+10зюз510625 0.0 1027507
15:00+11юз411615 0.0 1026584
18:00+7ююз411785 0.0 1026264
21:00+6юз412845 0.0 1026275
1 ноября, пн
пн100:00+5юз412875 0.0 1026263
03:00+4юз412865 0.0 1025265
06:00+3юз311875 0.0 1025225
09:00+5юз411805 0.0 1025265
12:00+9юз47595 0.0 1024371
15:00+10юз37590 0.0 1023370
18:00+6ююз34740 0.0 102358
21:00+5ююз34750 0.0 102361